| time (UTC) | temp F | wind direction | speed MPH | gust MPH | rain 1hr in | rain 24hr in | rain mn in | humidity % | barometer mb |
| 20260508192039 | 58 | 1 | 2.0 | 9.0 | 0.00 | 0.00 | 0.00 | 57 | 1009.5 |
| 20260508191548 | 59 | 289 | 2.0 | 9.0 | 0.00 | 0.00 | 0.00 | 57 | 1009.4 |
| 20260508191038 | 60 | 345 | 1.0 | 6.0 | 0.00 | 0.00 | 0.00 | 59 | 1009.5 |
| 20260508190539 | 61 | 53 | 1.0 | 4.0 | 0.00 | 0.00 | 0.00 | 58 | 1009.4 |
| 20260508190050 | 62 | 342 | 1.0 | 4.0 | 0.00 | 0.00 | 0.00 | 58 | 1009.4 |
| 20260508185538 | 62 | 317 | 1.0 | 4.0 | 0.00 | 0.00 | 0.00 | 60 | 1009.3 |
| 20260508185038 | 62 | 10 | 2.0 | 4.0 | 0.00 | 0.00 | 0.00 | 58 | 1009.3 |
| 20260508184550 | 61 | 17 | 1.0 | 6.0 | 0.00 | 0.00 | 0.00 | 58 | 1009.3 |
| 20260508184038 | 61 | 2 | 2.0 | 6.0 | 0.00 | 0.00 | 0.00 | 57 | 1009.3 |
| 20260508183539 | 61 | 344 | 2.0 | 7.0 | 0.00 | 0.00 | 0.00 | 56 | 1009.4 |
| 20260508183103 | 62 | 330 | 1.0 | 7.0 | 0.00 | 0.00 | 0.00 | 59 | 1009.3 |
| 20260508182539 | 62 | 347 | 1.0 | 4.0 | 0.00 | 0.00 | 0.00 | 55 | 1009.4 |
| 20260508182043 | 62 | 3 | 1.0 | 4.0 | 0.00 | 0.00 | 0.00 | 56 | 1009.4 |
| 20260508181611 | 62 | 152 | 1.0 | 4.0 | 0.00 | 0.00 | 0.00 | 54 | 1009.4 |
| 20260508181039 | 62 | 339 | 2.0 | 6.0 | 0.00 | 0.00 | 0.00 | 53 | 1009.3 |
| 20260508180538 | 62 | 282 | 2.0 | 6.0 | 0.00 | 0.00 | 0.00 | 54 | 1009.4 |
| 20260508180053 | 62 | 26 | 2.0 | 4.0 | 0.00 | 0.00 | 0.00 | 51 | 1009.5 |
| 20260508175540 | 62 | 31 | 2.0 | 4.0 | 0.00 | 0.00 | 0.00 | 53 | 1009.5 |
| 20260508175039 | 62 | 9 | 2.0 | 4.0 | 0.00 | 0.00 | 0.00 | 50 | 1009.5 |
| 20260508174551 | 63 | 334 | 1.0 | 4.0 | 0.00 | 0.00 | 0.00 | 52 | 1009.5 |
| 20260508174039 | 63 | 11 | 1.0 | 4.0 | 0.00 | 0.00 | 0.00 | 52 | 1009.8 |
| 20260508173538 | 63 | 306 | 1.0 | 6.0 | 0.00 | 0.00 | 0.00 | 58 | 1009.6 |
| 20260508173050 | 63 | 328 | 1.0 | 6.0 | 0.00 | 0.00 | 0.00 | 57 | 1009.8 |
| 20260508172538 | 63 | 330 | 1.0 | 4.0 | 0.00 | 0.00 | 0.00 | 57 | 1009.8 |
| 20260508172038 | 63 | 0 | 1.0 | 4.0 | 0.00 | 0.00 | 0.00 | 57 | 1009.8 |
| 20260508171551 | 63 | 7 | 0.0 | 5.0 | 0.00 | 0.00 | 0.00 | 60 | 1009.8 |
| 20260508171042 | 64 | 28 | 2.0 | 5.0 | 0.00 | 0.00 | 0.00 | 55 | 1009.9 |
| 20260508170539 | 64 | 35 | 0.0 | 4.0 | 0.00 | 0.00 | 0.00 | 63 | 1009.8 |
| 20260508170051 | 64 | 230 | 1.0 | 4.0 | 0.00 | 0.00 | 0.00 | 65 | 1009.9 |
| 20260508165538 | 64 | 301 | 1.0 | 3.0 | 0.00 | 0.00 | 0.00 | 59 | 1009.9 |
| 20260508165039 | 64 | 0 | 1.0 | 3.0 | 0.00 | 0.00 | 0.00 | 58 | 1009.9 |
| 20260508164553 | 64 | 253 | 1.0 | 3.0 | 0.00 | 0.00 | 0.00 | 63 | 1009.9 |
| 20260508164039 | 64 | 233 | 0.0 | 2.0 | 0.00 | 0.00 | 0.00 | 64 | 1009.9 |
| 20260508163538 | 63 | 233 | 0.0 | 3.0 | 0.00 | 0.00 | 0.00 | 62 | 1009.9 |
| 20260508163054 | 63 | 230 | 0.0 | 3.0 | 0.00 | 0.00 | 0.00 | 63 | 1010.0 |
| 20260508162538 | 63 | 278 | 0.0 | 3.0 | 0.00 | 0.00 | 0.00 | 60 | 1010.1 |
| 20260508162043 | 63 | 278 | 1.0 | 3.0 | 0.00 | 0.00 | 0.00 | 61 | 1010.1 |
| 20260508161553 | 63 | 278 | 0.0 | 3.0 | 0.00 | 0.00 | 0.00 | 56 | 1010.0 |
| 20260508161039 | 63 | 0 | 1.0 | 3.0 | 0.00 | 0.00 | 0.00 | 56 | 1010.0 |
| 20260508160539 | 63 | 5 | 1.0 | 3.0 | 0.00 | 0.00 | 0.00 | 56 | 1010.3 |
| 20260508160059 | 63 | 0 | 0.0 | 4.0 | 0.00 | 0.00 | 0.00 | 57 | 1010.3 |
| 20260508155538 | 62 | 287 | 1.0 | 4.0 | 0.00 | 0.00 | 0.00 | 51 | 1010.3 |
| 20260508155039 | 62 | 15 | 1.0 | 4.0 | 0.00 | 0.00 | 0.00 | 55 | 1010.1 |
| 20260508154556 | 61 | 345 | 0.0 | 4.0 | 0.00 | 0.00 | 0.00 | 51 | 1010.3 |
| 20260508154038 | 61 | 0 | 1.0 | 4.0 | 0.00 | 0.00 | 0.00 | 43 | 1010.2 |
| 20260508153536 | 62 | 1 | 1.0 | 4.0 | 0.00 | 0.00 | 0.00 | 46 | 1010.3 |
| 20260508153051 | 62 | 327 | 1.0 | 4.0 | 0.00 | 0.00 | 0.00 | 46 | 1010.2 |
| 20260508152541 | 63 | 354 | 1.0 | 3.0 | 0.00 | 0.00 | 0.00 | 51 | 1010.3 |
| 20260508152038 | 62 | 277 | 1.0 | 5.0 | 0.00 | 0.00 | 0.00 | 51 | 1010.2 |
| 20260508151551 | 61 | 10 | 1.0 | 5.0 | 0.00 | 0.00 | 0.00 | 48 | 1010.3 |
| 20260508151040 | 61 | 28 | 2.0 | 5.0 | 0.00 | 0.00 | 0.00 | 45 | 1010.6 |
| 20260508150539 | 61 | 8 | 1.0 | 3.0 | 0.00 | 0.00 | 0.00 | 47 | 1010.4 |
| 20260508150122 | 61 | 18 | 0.0 | 5.0 | 0.00 | 0.00 | 0.00 | 48 | 1010.4 |
| 20260508145542 | 61 | 322 | 1.0 | 5.0 | 0.00 | 0.00 | 0.00 | 52 | 1010.3 |
| 20260508145037 | 61 | 0 | 1.0 | 5.0 | 0.00 | 0.00 | 0.00 | 46 | 1010.4 |
| 20260508144558 | 61 | 359 | 1.0 | 5.0 | 0.00 | 0.00 | 0.00 | 47 | 1010.6 |
| 20260508144038 | 61 | 284 | 1.0 | 5.0 | 0.00 | 0.00 | 0.00 | 46 | 1010.5 |
| 20260508143538 | 61 | 32 | 0.0 | 3.0 | 0.00 | 0.00 | 0.00 | 49 | 1010.5 |
| 20260508143053 | 60 | 59 | 1.0 | 3.0 | 0.00 | 0.00 | 0.00 | 45 | 1010.6 |
| 20260508142538 | 60 | 167 | 1.0 | 3.0 | 0.00 | 0.00 | 0.00 | 46 | 1010.6 |
| 20260508142043 | 60 | 212 | 1.0 | 3.0 | 0.00 | 0.00 | 0.00 | 46 | 1010.5 |
| 20260508141600 | 60 | 38 | 1.0 | 3.0 | 0.00 | 0.00 | 0.00 | 50 | 1010.6 |
| 20260508141038 | 60 | 106 | 1.0 | 3.0 | 0.00 | 0.00 | 0.00 | 48 | 1010.7 |
| 20260508140538 | 60 | 66 | 0.0 | 4.0 | 0.00 | 0.00 | 0.00 | 48 | 1010.6 |
| 20260508140058 | 59 | 33 | 1.0 | 4.0 | 0.00 | 0.00 | 0.00 | 52 | 1010.6 |
| 20260508135539 | 59 | 23 | 1.0 | 4.0 | 0.00 | 0.00 | 0.00 | 50 | 1010.7 |
| 20260508135038 | 59 | 281 | 1.0 | 3.0 | 0.00 | 0.00 | 0.00 | 51 | 1010.9 |
| 20260508134548 | 59 | 353 | 1.0 | 3.0 | 0.00 | 0.00 | 0.00 | 49 | 1010.8 |
| 20260508134038 | 59 | 16 | 1.0 | 3.0 | 0.00 | 0.00 | 0.00 | 49 | 1010.9 |
| 20260508133538 | 58 | 337 | 1.0 | 7.0 | 0.00 | 0.00 | 0.00 | 53 | 1010.8 |
| 20260508133048 | 58 | 0 | 1.0 | 7.0 | 0.00 | 0.00 | 0.00 | 52 | 1010.8 |
| 20260508132539 | 58 | 204 | 1.0 | 7.0 | 0.00 | 0.00 | 0.00 | 56 | 1010.8 |
| 20260508132038 | 57 | 258 | 1.0 | 5.0 | 0.00 | 0.00 | 0.00 | 53 | 1010.8 |
| 20260508131555 | 57 | 330 | 1.0 | 4.0 | 0.00 | 0.00 | 0.00 | 56 | 1010.9 |
| 20260508131039 | 57 | 14 | 1.0 | 4.0 | 0.00 | 0.00 | 0.00 | 57 | 1011.0 |
| 20260508130538 | 56 | 317 | 1.0 | 3.0 | 0.00 | 0.00 | 0.00 | 63 | 1010.9 |
| 20260508130048 | 55 | 316 | 1.0 | 3.0 | 0.00 | 0.00 | 0.00 | 62 | 1010.8 |
| 20260508125539 | 54 | 12 | 1.0 | 3.0 | 0.00 | 0.00 | 0.00 | 66 | 1010.8 |
| 20260508125038 | 53 | 0 | 0.0 | 2.0 | 0.00 | 0.00 | 0.00 | 67 | 1010.8 |
| 20260508124550 | 52 | 0 | 0.0 | 2.0 | 0.00 | 0.00 | 0.00 | 66 | 1010.9 |
| 20260508124039 | 52 | 0 | 0.0 | 2.0 | 0.00 | 0.00 | 0.00 | 68 | 1011.0 |
| 20260508123538 | 51 | 0 | 0.0 | 2.0 | 0.00 | 0.00 | 0.00 | 67 | 1010.9 |
| 20260508123049 | 51 | 0 | 0.0 | 1.0 | 0.00 | 0.00 | 0.00 | 69 | 1010.9 |
| 20260508122538 | 50 | 0 | 0.0 | 1.0 | 0.00 | 0.00 | 0.00 | 70 | 1010.9 |
| 20260508122038 | 50 | 0 | 0.0 | 2.0 | 0.00 | 0.00 | 0.00 | 69 | 1010.7 |
| 20260508121549 | 49 | 0 | 0.0 | 2.0 | 0.00 | 0.00 | 0.00 | 74 | 1010.7 |
| 20260508121038 | 48 | 0 | 0.0 | 0.0 | 0.00 | 0.00 | 0.00 | 76 | 1010.8 |
| 20260508120538 | 47 | 0 | 0.0 | 0.0 | 0.00 | 0.00 | 0.00 | 81 | 1010.9 |
| 20260508120053 | 47 | 0 | 0.0 | 0.0 | 0.00 | 0.00 | 0.00 | 79 | 1010.9 |
| 20260508115538 | 46 | 0 | 0.0 | 0.0 | 0.00 | 0.00 | 0.00 | 78 | 1010.9 |
| 20260508115038 | 46 | 0 | 0.0 | 0.0 | 0.00 | 0.00 | 0.00 | 82 | 1010.7 |
| 20260508114601 | 46 | 0 | 0.0 | 0.0 | 0.00 | 0.00 | 0.00 | 82 | 1010.8 |
| 20260508114038 | 46 | 0 | 0.0 | 0.0 | 0.00 | 0.00 | 0.00 | 80 | 1010.8 |
| 20260508113539 | 46 | 0 | 0.0 | 0.0 | 0.00 | 0.00 | 0.00 | 79 | 1010.7 |
| 20260508113127 | 45 | 0 | 0.0 | 0.0 | 0.00 | 0.00 | 0.00 | 79 | 1010.9 |
| 20260508112542 | 45 | 0 | 0.0 | 0.0 | 0.00 | 0.00 | 0.00 | 81 | 1010.9 |
| 20260508112038 | 45 | 0 | 0.0 | 0.0 | 0.00 | 0.00 | 0.00 | 81 | 1010.9 |
| 20260508111552 | 45 | 0 | 0.0 | 0.0 | 0.00 | 0.00 | 0.00 | 82 | 1010.7 |
| 20260508111039 | 45 | 0 | 0.0 | 0.0 | 0.00 | 0.00 | 0.00 | 82 | 1010.9 |
| 20260508110539 | 44 | 0 | 0.0 | 0.0 | 0.00 | 0.00 | 0.00 | 82 | 1010.8 |
| 20260508110051 | 44 | 0 | 0.0 | 0.0 | 0.00 | 0.00 | 0.00 | 84 | 1010.8 |
| 20260508105542 | 44 | 0 | 0.0 | 0.0 | 0.00 | 0.00 | 0.00 | 85 | 1010.7 |
| 20260508105039 | 43 | 0 | 0.0 | 0.0 | 0.00 | 0.00 | 0.00 | 84 | 1010.6 |
| 20260508104558 | 43 | 0 | 0.0 | 0.0 | 0.00 | 0.00 | 0.00 | 84 | 1010.6 |
| 20260508104039 | 43 | 0 | 0.0 | 0.0 | 0.00 | 0.00 | 0.00 | 82 | 1010.5 |
| 20260508103539 | 43 | 0 | 0.0 | 0.0 | 0.00 | 0.00 | 0.00 | 83 | 1010.4 |
| 20260508103102 | 42 | 0 | 0.0 | 0.0 | 0.00 | 0.00 | 0.00 | 84 | 1010.3 |
| 20260508102539 | 42 | 0 | 0.0 | 0.0 | 0.00 | 0.00 | 0.00 | 83 | 1010.2 |
| 20260508102039 | 42 | 0 | 0.0 | 0.0 | 0.00 | 0.00 | 0.00 | 82 | 1010.2 |
| 20260508101549 | 42 | 0 | 0.0 | 1.0 | 0.00 | 0.00 | 0.00 | 82 | 1010.2 |
| 20260508101037 | 42 | 0 | 0.0 | 2.0 | 0.00 | 0.00 | 0.00 | 82 | 1010.1 |
| 20260508100538 | 41 | 0 | 0.0 | 2.0 | 0.00 | 0.00 | 0.00 | 81 | 1010.0 |
| 20260508100051 | 41 | 262 | 0.0 | 2.0 | 0.00 | 0.00 | 0.00 | 80 | 1010.0 |
| 20260508095541 | 41 | 0 | 0.0 | 0.0 | 0.00 | 0.00 | 0.00 | 81 | 1010.0 |
| 20260508095040 | 41 | 0 | 0.0 | 0.0 | 0.00 | 0.00 | 0.00 | 82 | 1010.0 |
| 20260508094552 | 41 | 0 | 0.0 | 0.0 | 0.00 | 0.00 | 0.00 | 82 | 1009.9 |
| 20260508094039 | 41 | 0 | 0.0 | 0.0 | 0.00 | 0.00 | 0.00 | 82 | 1009.9 |
| 20260508093539 | 41 | 0 | 0.0 | 0.0 | 0.00 | 0.00 | 0.00 | 82 | 1009.8 |
| 20260508093046 | 41 | 0 | 0.0 | 2.0 | 0.00 | 0.00 | 0.00 | 82 | 1009.7 |
| 20260508092539 | 40 | 0 | 0.0 | 2.0 | 0.00 | 0.00 | 0.00 | 81 | 1009.5 |
| 20260508092039 | 40 | 0 | 0.0 | 2.0 | 0.00 | 0.00 | 0.00 | 83 | 1009.6 |
| 20260508091549 | 40 | 0 | 0.0 | 2.0 | 0.00 | 0.00 | 0.00 | 83 | 1009.7 |
| 20260508091039 | 40 | 0 | 0.0 | 2.0 | 0.00 | 0.00 | 0.00 | 81 | 1009.7 |
| 20260508090539 | 40 | 0 | 0.0 | 2.0 | 0.00 | 0.00 | 0.00 | 82 | 1009.7 |
| 20260508090053 | 39 | 262 | 1.0 | 2.0 | 0.00 | 0.00 | 0.00 | 82 | 1009.7 |
| 20260508085538 | 39 | 262 | 0.0 | 2.0 | 0.00 | 0.00 | 0.00 | 82 | 1009.7 |
| 20260508085038 | 39 | 262 | 0.0 | 2.0 | 0.00 | 0.00 | 0.00 | 82 | 1009.6 |
| 20260508084548 | 39 | 262 | 0.0 | 2.0 | 0.00 | 0.00 | 0.00 | 81 | 1009.5 |
| 20260508084040 | 40 | 262 | 0.0 | 2.0 | 0.00 | 0.00 | 0.00 | 80 | 1009.5 |
| 20260508083539 | 40 | 0 | 0.0 | 2.0 | 0.00 | 0.00 | 0.00 | 80 | 1009.5 |
| 20260508083049 | 40 | 0 | 0.0 | 2.0 | 0.00 | 0.00 | 0.00 | 79 | 1009.4 |
| 20260508082539 | 40 | 0 | 0.0 | 2.0 | 0.00 | 0.00 | 0.00 | 80 | 1009.3 |
| 20260508082039 | 40 | 0 | 0.0 | 2.0 | 0.00 | 0.00 | 0.00 | 80 | 1009.1 |
| 20260508081552 | 41 | 0 | 0.0 | 2.0 | 0.00 | 0.00 | 0.00 | 79 | 1009.0 |
| 20260508081039 | 41 | 262 | 1.0 | 2.0 | 0.00 | 0.00 | 0.00 | 78 | 1009.1 |
| 20260508080539 | 41 | 262 | 0.0 | 1.0 | 0.00 | 0.00 | 0.00 | 79 | 1009.1 |
| 20260508080052 | 41 | 0 | 0.0 | 2.0 | 0.00 | 0.00 | 0.00 | 80 | 1009.1 |
| 20260508075539 | 41 | 0 | 0.0 | 2.0 | 0.00 | 0.00 | 0.00 | 80 | 1008.8 |
| 20260508075038 | 41 | 0 | 0.0 | 2.0 | 0.00 | 0.00 | 0.00 | 79 | 1008.6 |
| 20260508074550 | 41 | 262 | 0.0 | 2.0 | 0.00 | 0.00 | 0.00 | 79 | 1008.7 |
| 20260508074038 | 41 | 0 | 0.0 | 1.0 | 0.00 | 0.00 | 0.00 | 79 | 1008.5 |
| 20260508073539 | 42 | 0 | 0.0 | 1.0 | 0.00 | 0.00 | 0.00 | 80 | 1008.5 |
| 20260508073107 | 42 | 0 | 0.0 | 1.0 | 0.00 | 0.00 | 0.00 | 81 | 1008.4 |
| 20260508072538 | 42 | 262 | 0.0 | 2.0 | 0.00 | 0.00 | 0.00 | 78 | 1008.1 |
| 20260508072039 | 43 | 0 | 1.0 | 2.0 | 0.00 | 0.00 | 0.00 | 78 | 1008.1 |
| 20260508071549 | 43 | 262 | 1.0 | 2.0 | 0.00 | 0.00 | 0.00 | 77 | 1008.1 |
| 20260508071039 | 43 | 262 | 0.0 | 2.0 | 0.00 | 0.00 | 0.00 | 75 | 1008.1 |
| 20260508070539 | 43 | 0 | 0.0 | 0.0 | 0.00 | 0.00 | 0.00 | 74 | 1008.1 |
| 20260508070050 | 43 | 0 | 0.0 | 1.0 | 0.00 | 0.00 | 0.00 | 73 | 1008.2 |
| 20260508065540 | 43 | 0 | 0.0 | 1.0 | 0.00 | 0.00 | 0.00 | 73 | 1008.1 |
| 20260508065041 | 44 | 0 | 0.0 | 1.0 | 0.00 | 0.00 | 0.00 | 73 | 1008.0 |
| 20260508064601 | 44 | 0 | 0.0 | 0.0 | 0.00 | 0.00 | 0.00 | 73 | 1008.0 |
| 20260508064039 | 44 | 0 | 0.0 | 0.0 | 0.00 | 0.00 | 0.00 | 72 | 1007.9 |
| 20260508063538 | 44 | 0 | 0.0 | 0.0 | 0.00 | 0.00 | 0.00 | 72 | 1007.9 |
| 20260508063049 | 44 | 0 | 0.0 | 0.0 | 0.00 | 0.00 | 0.00 | 72 | 1007.8 |
| 20260508062539 | 45 | 0 | 0.0 | 0.0 | 0.00 | 0.00 | 0.00 | 71 | 1007.8 |
| 20260508062039 | 45 | 0 | 0.0 | 0.0 | 0.00 | 0.00 | 0.00 | 71 | 1007.8 |
| 20260508061557 | 45 | 0 | 0.0 | 0.0 | 0.00 | 0.00 | 0.00 | 70 | 1007.8 |
| 20260508061039 | 46 | 0 | 0.0 | 0.0 | 0.00 | 0.00 | 0.00 | 70 | 1007.8 |
| 20260508060539 | 46 | 0 | 0.0 | 0.0 | 0.00 | 0.00 | 0.00 | 69 | 1007.8 |
| 20260508060051 | 47 | 0 | 0.0 | 0.0 | 0.00 | 0.00 | 0.00 | 69 | 1007.7 |
| 20260508055540 | 47 | 0 | 0.0 | 0.0 | 0.00 | 0.00 | 0.00 | 68 | 1007.7 |
| 20260508055039 | 48 | 0 | 0.0 | 0.0 | 0.00 | 0.00 | 0.00 | 67 | 1007.7 |
| 20260508054620 | 48 | 0 | 0.0 | 0.0 | 0.00 | 0.00 | 0.00 | 66 | 1007.6 |
| 20260508054039 | 48 | 0 | 0.0 | 0.0 | 0.00 | 0.00 | 0.00 | 66 | 1007.7 |
| 20260508053542 | 49 | 0 | 0.0 | 1.0 | 0.00 | 0.00 | 0.00 | 65 | 1007.8 |
| 20260508053049 | 49 | 0 | 0.0 | 1.0 | 0.00 | 0.00 | 0.00 | 65 | 1007.8 |
| 20260508052539 | 49 | 0 | 0.0 | 1.0 | 0.00 | 0.00 | 0.00 | 66 | 1007.9 |
| 20260508052039 | 50 | 0 | 0.0 | 3.0 | 0.00 | 0.00 | 0.00 | 67 | 1007.9 |
| 20260508051549 | 50 | 0 | 0.0 | 3.0 | 0.00 | 0.00 | 0.00 | 64 | 1007.9 |
| 20260508051039 | 50 | 262 | 0.0 | 3.0 | 0.00 | 0.00 | 0.00 | 66 | 1008.0 |
| 20260508050537 | 50 | 0 | 0.0 | 2.0 | 0.00 | 0.00 | 0.00 | 62 | 1007.9 |
| 20260508050055 | 50 | 0 | 0.0 | 2.0 | 0.00 | 0.00 | 0.00 | 63 | 1008.0 |
| 20260508045536 | 50 | 262 | 0.0 | 2.0 | 0.00 | 0.00 | 0.00 | 67 | 1008.0 |
| 20260508045036 | 50 | 0 | 0.0 | 2.0 | 0.00 | 0.00 | 0.00 | 64 | 1007.9 |
| 20260508044547 | 50 | 0 | 0.0 | 2.0 | 0.00 | 0.00 | 0.00 | 65 | 1007.8 |
| 20260508044039 | 50 | 0 | 0.0 | 2.0 | 0.00 | 0.00 | 0.00 | 64 | 1007.8 |
| 20260508043540 | 50 | 0 | 0.0 | 2.0 | 0.00 | 0.00 | 0.00 | 63 | 1007.7 |
| 20260508043055 | 50 | 0 | 0.0 | 2.0 | 0.00 | 0.00 | 0.00 | 64 | 1007.8 |
| 20260508042537 | 50 | 0 | 0.0 | 2.0 | 0.00 | 0.00 | 0.00 | 63 | 1007.7 |
| 20260508042040 | 50 | 0 | 0.0 | 2.0 | 0.00 | 0.00 | 0.00 | 66 | 1007.8 |
| 20260508041547 | 50 | 0 | 0.0 | 2.0 | 0.00 | 0.00 | 0.00 | 64 | 1007.7 |
| 20260508041043 | 50 | 0 | 0.0 | 2.0 | 0.00 | 0.00 | 0.00 | 63 | 1007.7 |
| 20260508040538 | 50 | 269 | 0.0 | 1.0 | 0.00 | 0.00 | 0.00 | 64 | 1007.6 |
| 20260508040056 | 50 | 0 | 0.0 | 2.0 | 0.00 | 0.00 | 0.00 | 63 | 1007.7 |
| 20260508035544 | 50 | 0 | 0.0 | 2.0 | 0.00 | 0.00 | 0.00 | 65 | 1007.7 |
| 20260508035038 | 51 | 0 | 0.0 | 2.0 | 0.00 | 0.00 | 0.00 | 65 | 1007.6 |
| 20260508034551 | 51 | 0 | 0.0 | 2.0 | 0.00 | 0.00 | 0.00 | 66 | 1007.7 |
| 20260508034038 | 51 | 0 | 0.0 | 2.0 | 0.00 | 0.00 | 0.00 | 64 | 1007.7 |
| 20260508033536 | 50 | 268 | 0.0 | 2.0 | 0.00 | 0.00 | 0.00 | 65 | 1007.7 |
| 20260508033047 | 50 | 268 | 0.0 | 2.0 | 0.00 | 0.00 | 0.00 | 63 | 1007.6 |
| 20260508032539 | 50 | 268 | 0.0 | 2.0 | 0.00 | 0.00 | 0.00 | 65 | 1007.7 |
| 20260508032039 | 50 | 268 | 0.0 | 2.0 | 0.00 | 0.00 | 0.00 | 62 | 1007.6 |
| 20260508031556 | 50 | 298 | 0.0 | 3.0 | 0.00 | 0.00 | 0.00 | 63 | 1007.7 |
| 20260508031037 | 50 | 298 | 0.0 | 3.0 | 0.00 | 0.00 | 0.00 | 61 | 1007.7 |
| 20260508030538 | 50 | 298 | 0.0 | 3.0 | 0.00 | 0.00 | 0.00 | 63 | 1007.8 |
| 20260508030057 | 50 | 0 | 0.0 | 3.0 | 0.00 | 0.00 | 0.00 | 63 | 1007.9 |
| 20260508025539 | 50 | 0 | 0.0 | 3.0 | 0.00 | 0.00 | 0.00 | 63 | 1008.1 |
| 20260508025039 | 50 | 298 | 0.0 | 3.0 | 0.00 | 0.00 | 0.00 | 61 | 1008.3 |
| 20260508024548 | 50 | 347 | 0.0 | 2.0 | 0.00 | 0.00 | 0.00 | 62 | 1008.2 |
| 20260508024039 | 50 | 347 | 0.0 | 4.0 | 0.00 | 0.00 | 0.00 | 63 | 1008.3 |
| 20260508023540 | 50 | 34 | 1.0 | 4.0 | 0.00 | 0.00 | 0.00 | 63 | 1008.2 |
| 20260508023048 | 49 | 360 | 1.0 | 3.0 | 0.00 | 0.00 | 0.00 | 65 | 1008.1 |
| 20260508022538 | 50 | 0 | 0.0 | 2.0 | 0.00 | 0.00 | 0.00 | 66 | 1008.2 |
| 20260508022038 | 49 | 286 | 0.0 | 2.0 | 0.00 | 0.00 | 0.00 | 66 | 1008.2 |
| 20260508021554 | 49 | 0 | 0.0 | 2.0 | 0.00 | 0.00 | 0.00 | 69 | 1008.2 |
| 20260508021036 | 49 | 272 | 0.0 | 2.0 | 0.00 | 0.00 | 0.00 | 67 | 1008.3 |
| 20260508020539 | 49 | 0 | 0.0 | 1.0 | 0.00 | 0.00 | 0.00 | 68 | 1008.3 |
| 20260508020050 | 49 | 0 | 0.0 | 0.0 | 0.00 | 0.00 | 0.00 | 69 | 1008.3 |
| 20260508015539 | 49 | 0 | 0.0 | 1.0 | 0.00 | 0.00 | 0.00 | 70 | 1008.2 |
| 20260508015039 | 49 | 0 | 0.0 | 1.0 | 0.00 | 0.00 | 0.00 | 68 | 1008.1 |
| 20260508014547 | 50 | 0 | 0.0 | 0.0 | 0.00 | 0.00 | 0.00 | 68 | 1008.2 |
| 20260508014039 | 50 | 0 | 0.0 | 1.0 | 0.00 | 0.00 | 0.00 | 67 | 1008.1 |
| 20260508013540 | 50 | 0 | 0.0 | 1.0 | 0.00 | 0.00 | 0.00 | 66 | 1008.0 |
| 20260508013054 | 50 | 0 | 0.0 | 0.0 | 0.00 | 0.00 | 0.00 | 69 | 1008.0 |
| 20260508012539 | 51 | 0 | 0.0 | 1.0 | 0.00 | 0.00 | 0.00 | 67 | 1007.9 |
| 20260508012042 | 51 | 0 | 0.0 | 1.0 | 0.00 | 0.00 | 0.00 | 67 | 1007.8 |
| 20260508011555 | 51 | 0 | 0.0 | 1.0 | 0.00 | 0.00 | 0.00 | 67 | 1007.9 |
| 20260508011042 | 51 | 0 | 0.0 | 2.0 | 0.00 | 0.00 | 0.00 | 65 | 1007.7 |
| 20260508010539 | 51 | 0 | 0.0 | 2.0 | 0.00 | 0.00 | 0.00 | 63 | 1008.0 |
| 20260508010054 | 51 | 272 | 1.0 | 2.0 | 0.00 | 0.00 | 0.00 | 65 | 1007.9 |
| 20260508005541 | 51 | 272 | 0.0 | 2.0 | 0.00 | 0.00 | 0.00 | 68 | 1007.8 |
| 20260508005042 | 51 | 0 | 0.0 | 2.0 | 0.00 | 0.00 | 0.00 | 67 | 1007.7 |
| 20260508004550 | 51 | 272 | 0.0 | 1.0 | 0.00 | 0.00 | 0.00 | 66 | 1007.7 |
| 20260508004039 | 52 | 0 | 0.0 | 1.0 | 0.00 | 0.00 | 0.00 | 66 | 1007.7 |
| 20260508003539 | 52 | 0 | 0.0 | 2.0 | 0.00 | 0.00 | 0.00 | 66 | 1007.6 |
| 20260508003051 | 52 | 0 | 0.0 | 2.0 | 0.00 | 0.00 | 0.00 | 66 | 1007.6 |
| 20260508002540 | 52 | 0 | 0.0 | 2.0 | 0.00 | 0.00 | 0.00 | 64 | 1007.6 |
| 20260508002043 | 52 | 0 | 0.0 | 2.0 | 0.00 | 0.00 | 0.00 | 67 | 1007.3 |
| 20260508001551 | 53 | 0 | 0.0 | 2.0 | 0.00 | 0.00 | 0.00 | 67 | 1006.7 |
| 20260508001038 | 53 | 0 | 0.0 | 3.0 | 0.00 | 0.00 | 0.00 | 63 | 1006.4 |
| 20260508000539 | 53 | 0 | 0.0 | 4.0 | 0.00 | 0.00 | 0.00 | 63 | 1006.6 |
| 20260508000107 | 53 | 0 | 0.0 | 4.0 | 0.00 | 0.00 | 0.00 | 63 | 1006.7 |
| 20260507235541 | 54 | 0 | 0.0 | 1.0 | 0.00 | 0.00 | 0.00 | 64 | 1006.7 |
| 20260507235039 | 54 | 0 | 0.0 | 2.0 | 0.00 | 0.00 | 0.00 | 64 | 1006.6 |
| 20260507234551 | 54 | 0 | 0.0 | 2.0 | 0.00 | 0.00 | 0.00 | 65 | 1006.5 |
| 20260507234041 | 54 | 0 | 0.0 | 2.0 | 0.00 | 0.00 | 0.00 | 64 | 1006.4 |
| 20260507233540 | 55 | 262 | 0.0 | 2.0 | 0.00 | 0.00 | 0.00 | 64 | 1006.4 |
| 20260507233052 | 55 | 0 | 0.0 | 2.0 | 0.00 | 0.00 | 0.00 | 63 | 1006.5 |
| 20260507232538 | 55 | 262 | 0.0 | 1.0 | 0.00 | 0.00 | 0.00 | 62 | 1006.4 |
| 20260507232038 | 56 | 0 | 0.0 | 2.0 | 0.00 | 0.00 | 0.00 | 61 | 1006.4 |
| 20260507231557 | 56 | 0 | 0.0 | 2.0 | 0.00 | 0.00 | 0.00 | 60 | 1006.2 |
| 20260507231039 | 56 | 262 | 0.0 | 2.0 | 0.00 | 0.00 | 0.00 | 59 | 1006.2 |
| 20260507230542 | 57 | 262 | 0.0 | 3.0 | 0.00 | 0.00 | 0.00 | 60 | 1006.1 |
| 20260507230056 | 57 | 0 | 0.0 | 3.0 | 0.00 | 0.00 | 0.00 | 59 | 1006.1 |
| 20260507225539 | 58 | 262 | 0.0 | 2.0 | 0.00 | 0.00 | 0.00 | 57 | 1005.9 |
| 20260507225039 | 58 | 0 | 0.0 | 2.0 | 0.00 | 0.00 | 0.00 | 58 | 1006.0 |
| 20260507224550 | 58 | 0 | 0.0 | 2.0 | 0.00 | 0.00 | 0.00 | 56 | 1005.9 |
| 20260507224039 | 59 | 0 | 0.0 | 2.0 | 0.00 | 0.00 | 0.00 | 55 | 1005.8 |
| 20260507223542 | 59 | 0 | 0.0 | 2.0 | 0.00 | 0.00 | 0.00 | 56 | 1005.9 |
| 20260507223049 | 59 | 264 | 0.0 | 2.0 | 0.00 | 0.00 | 0.00 | 54 | 1005.9 |
| 20260507222539 | 60 | 0 | 0.0 | 2.0 | 0.00 | 0.00 | 0.00 | 50 | 1005.8 |
| 20260507222039 | 60 | 0 | 0.0 | 2.0 | 0.00 | 0.00 | 0.00 | 53 | 1005.8 |
| 20260507221550 | 60 | 274 | 0.0 | 3.0 | 0.00 | 0.00 | 0.00 | 53 | 1005.9 |
| 20260507221040 | 61 | 0 | 0.0 | 3.0 | 0.00 | 0.00 | 0.00 | 54 | 1005.9 |
| 20260507220539 | 61 | 0 | 0.0 | 2.0 | 0.00 | 0.00 | 0.00 | 53 | 1006.0 |
| 20260507220054 | 62 | 274 | 0.0 | 2.0 | 0.00 | 0.00 | 0.00 | 46 | 1006.0 |
| 20260507215541 | 62 | 0 | 0.0 | 3.0 | 0.00 | 0.00 | 0.00 | 45 | 1006.0 |
| 20260507215039 | 62 | 221 | 0.0 | 3.0 | 0.00 | 0.00 | 0.00 | 48 | 1005.9 |
| 20260507214554 | 62 | 0 | 0.0 | 2.0 | 0.00 | 0.00 | 0.00 | 48 | 1005.8 |
| 20260507214039 | 62 | 17 | 0.0 | 3.0 | 0.00 | 0.00 | 0.00 | 48 | 1005.8 |
| 20260507213539 | 62 | 0 | 0.0 | 3.0 | 0.00 | 0.00 | 0.00 | 50 | 1005.8 |
| 20260507213053 | 62 | 347 | 1.0 | 3.0 | 0.00 | 0.00 | 0.00 | 47 | 1005.8 |
| 20260507212542 | 62 | 347 | 0.0 | 6.0 | 0.00 | 0.00 | 0.00 | 49 | 1005.7 |
| 20260507212039 | 62 | 0 | 0.0 | 6.0 | 0.00 | 0.00 | 0.00 | 46 | 1005.7 |
| 20260507211600 | 62 | 3 | 0.0 | 3.0 | 0.00 | 0.00 | 0.00 | 45 | 1005.7 |
| 20260507211039 | 62 | 286 | 1.0 | 2.0 | 0.00 | 0.00 | 0.00 | 50 | 1005.7 |
| 20260507210539 | 62 | 0 | 0.0 | 2.0 | 0.00 | 0.00 | 0.00 | 48 | 1005.7 |
| 20260507210054 | 62 | 0 | 0.0 | 2.0 | 0.00 | 0.00 | 0.00 | 51 | 1005.6 |
| 20260507205538 | 62 | 282 | 0.0 | 2.0 | 0.00 | 0.00 | 0.00 | 54 | 1005.4 |
| 20260507205039 | 61 | 0 | 0.0 | 4.0 | 0.00 | 0.00 | 0.00 | 54 | 1005.5 |
| 20260507204554 | 61 | 282 | 1.0 | 4.0 | 0.00 | 0.00 | 0.00 | 54 | 1005.4 |
| 20260507204038 | 61 | 280 | 0.0 | 4.0 | 0.00 | 0.00 | 0.00 | 66 | 1005.3 |
| 20260507203539 | 60 | 35 | 1.0 | 5.0 | 0.00 | 0.00 | 0.00 | 67 | 1005.4 |
| 20260507203053 | 60 | 300 | 1.0 | 5.0 | 0.00 | 0.00 | 0.00 | 63 | 1005.4 |
| 20260507202543 | 61 | 119 | 1.0 | 5.0 | 0.00 | 0.00 | 0.00 | 64 | 1005.3 |
| 20260507202039 | 62 | 25 | 0.0 | 2.0 | 0.00 | 0.00 | 0.00 | 68 | 1005.2 |
| 20260507201552 | 62 | 0 | 0.0 | 2.0 | 0.00 | 0.00 | 0.00 | 68 | 1005.2 |
| 20260507201039 | 62 | 0 | 0.0 | 3.0 | 0.00 | 0.00 | 0.00 | 66 | 1005.2 |
| 20260507200539 | 62 | 0 | 0.0 | 3.0 | 0.00 | 0.00 | 0.00 | 63 | 1005.2 |
| 20260507200052 | 63 | 40 | 0.0 | 3.0 | 0.00 | 0.00 | 0.00 | 63 | 1005.0 |
| 20260507195539 | 63 | 288 | 1.0 | 2.0 | 0.00 | 0.00 | 0.00 | 63 | 1005.1 |
| 20260507195039 | 63 | 0 | 0.0 | 2.0 | 0.00 | 0.00 | 0.00 | 66 | 1005.1 |
| 20260507194557 | 64 | 278 | 0.0 | 1.0 | 0.00 | 0.00 | 0.00 | 67 | 1005.3 |
| 20260507194039 | 64 | 0 | 0.0 | 1.0 | 0.00 | 0.00 | 0.00 | 64 | 1005.4 |
| 20260507193539 | 65 | 0 | 0.0 | 1.0 | 0.00 | 0.00 | 0.00 | 67 | 1005.6 |
| 20260507193057 | 65 | 0 | 0.0 | 1.0 | 0.00 | 0.00 | 0.00 | 66 | 1005.6 |
| 20260507192539 | 66 | 278 | 0.0 | 2.0 | 0.00 | 0.00 | 0.00 | 66 | 1005.7 |